Location: Gilevgi
(36.8751°N, 30.0581°E)
Time: 09:15:07
(UTC+00:00)

Okean 1-7 Rocket - Pass Details

Date: 16 March 2026
Orbit: 609 x 643 km, 82.5° (Epoch: 19 April)

Event Time Altitude Azimuth Distance (km) Brightness Sun altitude
Rises 02:18:02 0° 16° (NNE) 2,919 7.4 -22.9°
Reaches altitude 10° 02:21:35 10° 45° (NE) 1,997 7.0 -22.2°
Maximum altitude 02:23:30 13° 71° (ENE) 1,824 7.0 -21.9°
Drops below altitude 10° 02:25:25 10° 97° (E) 1,983 7.1 -21.5°
Sets 02:28:53 0° 127° (SE) 2,874 7.5 -20.8°
